| time (UTC) | temp F | wind direction | speed MPH | gust MPH | rain 1hr in | rain 24hr in | rain mn in | humidity % | barometer mb |
| 20260508164111 | 63 | 126 | 1.0 | 2.0 | 0.00 | 0.01 | 0.00 | 61 | 1009.5 |
| 20260508163211 | 62 | 298 | 0.0 | 1.0 | 0.00 | 0.01 | 0.00 | 62 | 1009.5 |
| 20260508162512 | 62 | 127 | 1.0 | 2.0 | 0.00 | 0.01 | 0.00 | 62 | 1009.7 |
| 20260508162311 | 61 | 131 | 1.0 | 2.0 | 0.00 | 0.01 | 0.00 | 62 | 1009.8 |
| 20260508161611 | 61 | 107 | 1.0 | 1.0 | 0.00 | 0.01 | 0.00 | 64 | 1009.9 |
| 20260508161411 | 61 | 111 | 1.0 | 1.0 | 0.00 | 0.01 | 0.00 | 63 | 1009.8 |
| 20260508160712 | 61 | 113 | 1.0 | 2.0 | 0.00 | 0.01 | 0.00 | 63 | 1009.9 |
| 20260508160511 | 61 | 250 | 1.0 | 2.0 | 0.00 | 0.01 | 0.00 | 63 | 1009.8 |
| 20260508155811 | 60 | 273 | 1.0 | 2.0 | 0.00 | 0.01 | 0.00 | 64 | 1009.8 |
| 20260508155611 | 60 | 269 | 1.0 | 2.0 | 0.00 | 0.01 | 0.00 | 64 | 1009.8 |
| 20260508154911 | 60 | 27 | 1.0 | 2.0 | 0.00 | 0.01 | 0.00 | 65 | 1009.9 |
| 20260508154711 | 60 | 12 | 1.0 | 2.0 | 0.00 | 0.01 | 0.00 | 65 | 1010.0 |
| 20260508154011 | 60 | 287 | 1.0 | 2.0 | 0.00 | 0.01 | 0.00 | 65 | 1010.1 |
| 20260508153111 | 60 | 59 | 1.0 | 2.0 | 0.00 | 0.01 | 0.00 | 64 | 1010.2 |
| 20260508152911 | 60 | 74 | 1.0 | 2.0 | 0.00 | 0.01 | 0.00 | 64 | 1010.2 |
| 20260508152212 | 60 | 49 | 1.0 | 2.0 | 0.00 | 0.01 | 0.00 | 65 | 1010.2 |
| 20260508151311 | 60 | 33 | 0.0 | 1.0 | 0.00 | 0.01 | 0.00 | 65 | 1010.3 |
| 20260508151111 | 60 | 93 | 1.0 | 3.0 | 0.00 | 0.01 | 0.00 | 65 | 1010.4 |
| 20260508150411 | 59 | 83 | 1.0 | 1.0 | 0.00 | 0.01 | 0.00 | 66 | 1010.5 |
| 20260508150211 | 59 | 87 | 1.0 | 3.0 | 0.00 | 0.01 | 0.00 | 66 | 1010.4 |
| 20260508145511 | 58 | 167 | 1.0 | 2.0 | 0.00 | 0.01 | 0.00 | 67 | 1010.4 |
| 20260508145311 | 58 | 183 | 1.0 | 2.0 | 0.00 | 0.01 | 0.00 | 67 | 1010.4 |
| 20260508144611 | 58 | 88 | 1.0 | 2.0 | 0.00 | 0.01 | 0.00 | 68 | 1010.4 |
| 20260508144411 | 58 | 73 | 1.0 | 2.0 | 0.00 | 0.01 | 0.00 | 69 | 1010.5 |
| 20260508143711 | 56 | 72 | 0.0 | 1.0 | 0.00 | 0.01 | 0.00 | 70 | 1010.6 |
| 20260508143511 | 56 | 85 | 0.0 | 1.0 | 0.00 | 0.01 | 0.00 | 70 | 1010.6 |
| 20260508142811 | 55 | 163 | 0.0 | 1.0 | 0.00 | 0.01 | 0.00 | 71 | 1010.6 |
| 20260508141911 | 54 | 128 | 0.0 | 2.0 | 0.00 | 0.01 | 0.00 | 71 | 1010.7 |
| 20260508141711 | 54 | 109 | 0.0 | 2.0 | 0.00 | 0.01 | 0.00 | 71 | 1010.7 |
| 20260508141011 | 53 | 102 | 1.0 | 1.0 | 0.00 | 0.01 | 0.00 | 71 | 1010.6 |
| 20260508140111 | 52 | 181 | 0.0 | 1.0 | 0.00 | 0.01 | 0.00 | 70 | 1010.7 |
| 20260508135911 | 52 | 178 | 0.0 | 1.0 | 0.00 | 0.01 | 0.00 | 70 | 1010.8 |
| 20260508135211 | 52 | 173 | 0.0 | 1.0 | 0.00 | 0.01 | 0.00 | 69 | 1010.7 |
| 20260508135011 | 51 | 173 | 0.0 | 1.0 | 0.00 | 0.01 | 0.00 | 68 | 1010.7 |
| 20260508134311 | 50 | 173 | 0.0 | 1.0 | 0.00 | 0.01 | 0.00 | 66 | 1010.7 |
| 20260508134110 | 50 | 173 | 0.0 | 1.0 | 0.00 | 0.01 | 0.00 | 65 | 1010.7 |
| 20260508133420 | 50 | 173 | 1.0 | 1.0 | 0.00 | 0.01 | 0.00 | 62 | 1010.7 |
| 20260508133211 | 50 | 174 | 1.0 | 2.0 | 0.00 | 0.01 | 0.00 | 62 | 1010.6 |
| 20260508132512 | 49 | 193 | 1.0 | 2.0 | 0.00 | 0.01 | 0.00 | 60 | 1010.6 |
| 20260508132311 | 49 | 190 | 1.0 | 2.0 | 0.00 | 0.01 | 0.00 | 59 | 1010.6 |
| 20260508131620 | 49 | 204 | 0.0 | 2.0 | 0.00 | 0.01 | 0.00 | 57 | 1010.7 |
| 20260508131411 | 49 | 208 | 0.0 | 1.0 | 0.00 | 0.01 | 0.00 | 57 | 1010.6 |
| 20260508130510 | 48 | 215 | 0.0 | 1.0 | 0.00 | 0.01 | 0.00 | 56 | 1010.6 |
| 20260508125610 | 48 | 215 | 0.0 | 1.0 | 0.00 | 0.01 | 0.00 | 55 | 1010.6 |
| 20260508124912 | 47 | 0 | 0.0 | 0.0 | 0.00 | 0.01 | 0.00 | 55 | 1010.5 |
| 20260508124012 | 46 | 0 | 0.0 | 0.0 | 0.00 | 0.01 | 0.00 | 56 | 1010.5 |
| 20260508123810 | 46 | 0 | 0.0 | 0.0 | 0.00 | 0.02 | 0.00 | 56 | 1010.4 |
| 20260508123112 | 46 | 0 | 0.0 | 0.0 | 0.00 | 0.02 | 0.00 | 56 | 1010.7 |
| 20260508122910 | 46 | 0 | 0.0 | 0.0 | 0.00 | 0.02 | 0.00 | 56 | 1010.7 |
| 20260508122212 | 46 | 186 | 0.0 | 1.0 | 0.00 | 0.02 | 0.00 | 57 | 1010.7 |
| 20260508122010 | 46 | 184 | 0.0 | 1.0 | 0.00 | 0.02 | 0.00 | 57 | 1010.7 |
| 20260508121110 | 45 | 193 | 0.0 | 1.0 | 0.00 | 0.02 | 0.00 | 57 | 1010.5 |
| 20260508120412 | 45 | 200 | 0.0 | 1.0 | 0.00 | 0.02 | 0.00 | 58 | 1010.5 |
| 20260508120210 | 45 | 0 | 0.0 | 0.0 | 0.00 | 0.02 | 0.00 | 58 | 1010.5 |
| 20260508115512 | 45 | 0 | 0.0 | 0.0 | 0.00 | 0.02 | 0.00 | 58 | 1010.6 |
| 20260508115310 | 45 | 0 | 0.0 | 0.0 | 0.00 | 0.02 | 0.00 | 59 | 1010.6 |
| 20260508114612 | 45 | 0 | 0.0 | 0.0 | 0.00 | 0.02 | 0.00 | 59 | 1010.6 |
| 20260508114410 | 44 | 0 | 0.0 | 0.0 | 0.00 | 0.02 | 0.00 | 59 | 1010.5 |
| 20260508113713 | 44 | 0 | 0.0 | 0.0 | 0.00 | 0.02 | 0.00 | 59 | 1010.5 |
| 20260508113510 | 44 | 0 | 0.0 | 0.0 | 0.00 | 0.02 | 0.00 | 59 | 1010.4 |
| 20260508112812 | 44 | 0 | 0.0 | 0.0 | 0.00 | 0.02 | 0.00 | 60 | 1010.4 |
| 20260508111912 | 44 | 0 | 0.0 | 0.0 | 0.00 | 0.02 | 0.00 | 60 | 1010.2 |
| 20260508111711 | 44 | 0 | 0.0 | 0.0 | 0.00 | 0.02 | 0.00 | 61 | 1010.3 |
| 20260508111012 | 44 | 0 | 0.0 | 0.0 | 0.00 | 0.02 | 0.00 | 61 | 1010.3 |
| 20260508110810 | 44 | 198 | 0.0 | 1.0 | 0.00 | 0.02 | 0.00 | 61 | 1010.3 |
| 20260508104938 | 43 | 0 | 0.0 | 0.0 | 0.00 | 0.02 | 0.00 | 63 | 1010.3 |
| 20260508104037 | 42 | 0 | 0.0 | 0.0 | 0.00 | 0.02 | 0.00 | 64 | 1010.4 |
| 20260508103138 | 42 | 0 | 0.0 | 0.0 | 0.00 | 0.02 | 0.00 | 65 | 1010.5 |
| 20260508100437 | 42 | 0 | 0.0 | 0.0 | 0.00 | 0.02 | 0.00 | 67 | 1010.2 |
| 20260508095538 | 41 | 0 | 0.0 | 0.0 | 0.00 | 0.02 | 0.00 | 68 | 1010.3 |
| 20260508094637 | 42 | 0 | 0.0 | 0.0 | 0.00 | 0.02 | 0.00 | 68 | 1010.5 |
| 20260508093737 | 42 | 0 | 0.0 | 0.0 | 0.00 | 0.02 | 0.00 | 69 | 1010.6 |
| 20260508092837 | 42 | 0 | 0.0 | 0.0 | 0.00 | 0.02 | 0.00 | 69 | 1010.7 |
| 20260508091937 | 42 | 0 | 0.0 | 0.0 | 0.00 | 0.02 | 0.00 | 68 | 1010.6 |
| 20260508091037 | 43 | 0 | 0.0 | 0.0 | 0.00 | 0.02 | 0.00 | 68 | 1010.5 |
| 20260508090137 | 43 | 0 | 0.0 | 0.0 | 0.00 | 0.02 | 0.00 | 69 | 1010.5 |
| 20260508084337 | 43 | 198 | 0.0 | 1.0 | 0.00 | 0.02 | 0.00 | 68 | 1010.7 |
| 20260508083437 | 43 | 0 | 0.0 | 0.0 | 0.00 | 0.02 | 0.00 | 68 | 1010.7 |
| 20260508082537 | 43 | 0 | 0.0 | 0.0 | 0.00 | 0.02 | 0.00 | 68 | 1010.7 |
| 20260508081637 | 43 | 0 | 0.0 | 0.0 | 0.00 | 0.02 | 0.00 | 68 | 1010.8 |
| 20260508080737 | 44 | 0 | 0.0 | 0.0 | 0.00 | 0.02 | 0.00 | 68 | 1010.8 |
| 20260508075837 | 44 | 0 | 0.0 | 0.0 | 0.00 | 0.02 | 0.00 | 68 | 1010.8 |
| 20260508074937 | 44 | 0 | 0.0 | 0.0 | 0.00 | 0.02 | 0.00 | 69 | 1010.9 |
| 20260508074039 | 44 | 0 | 0.0 | 0.0 | 0.00 | 0.02 | 0.00 | 70 | 1011.0 |
| 20260508073137 | 44 | 0 | 0.0 | 0.0 | 0.00 | 0.02 | 0.00 | 71 | 1011.0 |
| 20260508072237 | 44 | 0 | 0.0 | 0.0 | 0.00 | 0.02 | 0.00 | 71 | 1011.0 |
| 20260508071337 | 44 | 198 | 0.0 | 1.0 | 0.00 | 0.02 | 0.00 | 71 | 1011.1 |
| 20260508070437 | 44 | 0 | 0.0 | 0.0 | 0.00 | 0.02 | 0.00 | 72 | 1011.2 |
| 20260508065537 | 44 | 0 | 0.0 | 0.0 | 0.00 | 0.02 | 0.00 | 72 | 1011.2 |
| 20260508064637 | 45 | 0 | 0.0 | 0.0 | 0.00 | 0.02 | 0.00 | 72 | 1011.1 |
| 20260508063737 | 45 | 0 | 0.0 | 0.0 | 0.00 | 0.02 | 0.00 | 73 | 1011.0 |
| 20260508062837 | 45 | 0 | 0.0 | 0.0 | 0.00 | 0.02 | 0.00 | 74 | 1011.1 |
| 20260508061937 | 45 | 0 | 0.0 | 0.0 | 0.00 | 0.02 | 0.00 | 74 | 1011.2 |
| 20260508061037 | 45 | 0 | 0.0 | 0.0 | 0.00 | 0.02 | 0.00 | 74 | 1011.1 |
| 20260508060137 | 46 | 0 | 0.0 | 0.0 | 0.00 | 0.02 | 0.00 | 74 | 1011.2 |
| 20260508054337 | 46 | 0 | 0.0 | 0.0 | 0.00 | 0.02 | 0.00 | 74 | 1011.0 |
| 20260508053437 | 46 | 0 | 0.0 | 0.0 | 0.00 | 0.02 | 0.00 | 74 | 1010.9 |
| 20260508052537 | 47 | 0 | 0.0 | 0.0 | 0.00 | 0.02 | 0.00 | 74 | 1010.9 |
| 20260508051637 | 47 | 198 | 0.0 | 1.0 | 0.00 | 0.02 | 0.00 | 74 | 1010.9 |
| 20260508050737 | 48 | 198 | 0.0 | 1.0 | 0.00 | 0.02 | 0.00 | 73 | 1010.9 |
| 20260508045837 | 49 | 0 | 0.0 | 0.0 | 0.00 | 0.02 | 0.02 | 72 | 1010.9 |
| 20260508044937 | 49 | 0 | 0.0 | 0.0 | 0.00 | 0.02 | 0.02 | 72 | 1010.9 |
| 20260508044037 | 50 | 0 | 0.0 | 0.0 | 0.00 | 0.02 | 0.02 | 71 | 1010.8 |
| 20260508043137 | 50 | 0 | 0.0 | 0.0 | 0.00 | 0.02 | 0.02 | 70 | 1010.7 |
| 20260508042237 | 51 | 0 | 0.0 | 0.0 | 0.00 | 0.02 | 0.02 | 69 | 1010.7 |
| 20260508041337 | 52 | 199 | 0.0 | 1.0 | 0.00 | 0.02 | 0.02 | 68 | 1010.6 |
| 20260508035537 | 52 | 197 | 0.0 | 2.0 | 0.00 | 0.02 | 0.02 | 68 | 1010.5 |
| 20260508034637 | 52 | 189 | 0.0 | 1.0 | 0.00 | 0.02 | 0.02 | 67 | 1010.3 |
| 20260508033737 | 52 | 189 | 0.0 | 1.0 | 0.00 | 0.02 | 0.02 | 67 | 1010.3 |
| 20260508032837 | 52 | 189 | 0.0 | 1.0 | 0.00 | 0.02 | 0.02 | 68 | 1010.3 |
| 20260508031937 | 51 | 228 | 1.0 | 3.0 | 0.00 | 0.02 | 0.02 | 70 | 1010.3 |
| 20260508031037 | 49 | 345 | 0.0 | 2.0 | 0.00 | 0.02 | 0.02 | 72 | 1010.2 |
| 20260508030137 | 48 | 339 | 0.0 | 1.0 | 0.00 | 0.02 | 0.02 | 73 | 1010.3 |
| 20260508024337 | 48 | 339 | 0.0 | 1.0 | 0.00 | 0.02 | 0.02 | 73 | 1010.2 |
| 20260508023437 | 48 | 0 | 0.0 | 0.0 | 0.00 | 0.02 | 0.02 | 73 | 1010.0 |
| 20260508022537 | 49 | 0 | 0.0 | 0.0 | 0.00 | 0.02 | 0.02 | 72 | 1009.9 |
| 20260508021637 | 49 | 0 | 0.0 | 0.0 | 0.00 | 0.02 | 0.02 | 72 | 1009.8 |
| 20260508020737 | 50 | 0 | 0.0 | 0.0 | 0.00 | 0.02 | 0.02 | 71 | 1009.8 |
| 20260508015837 | 50 | 0 | 0.0 | 0.0 | 0.00 | 0.02 | 0.02 | 71 | 1009.8 |
| 20260508014937 | 51 | 0 | 0.0 | 0.0 | 0.00 | 0.02 | 0.02 | 70 | 1009.6 |
| 20260508014037 | 51 | 0 | 0.0 | 0.0 | 0.00 | 0.02 | 0.02 | 69 | 1009.5 |
| 20260508013137 | 52 | 339 | 0.0 | 1.0 | 0.00 | 0.02 | 0.02 | 69 | 1009.4 |
| 20260508012237 | 52 | 0 | 0.0 | 0.0 | 0.00 | 0.02 | 0.02 | 67 | 1009.3 |
| 20260508005537 | 54 | 0 | 0.0 | 0.0 | 0.00 | 0.02 | 0.02 | 64 | 1009.1 |
| 20260508003737 | 55 | 339 | 0.0 | 1.0 | 0.00 | 0.02 | 0.02 | 62 | 1009.0 |
| 20260508002837 | 56 | 339 | 0.0 | 1.0 | 0.00 | 0.02 | 0.02 | 61 | 1009.1 |
| 20260508001936 | 56 | 7 | 0.0 | 2.0 | 0.00 | 0.02 | 0.02 | 59 | 1009.0 |
| 20260508001036 | 56 | 201 | 0.0 | 2.0 | 0.00 | 0.02 | 0.02 | 59 | 1009.1 |
| 20260507234337 | 56 | 5 | 0.0 | 2.0 | 0.00 | 0.02 | 0.02 | 62 | 1009.1 |
| 20260507233436 | 56 | 334 | 0.0 | 2.0 | 0.00 | 0.02 | 0.02 | 63 | 1009.2 |
| 20260507231637 | 54 | 339 | 1.0 | 3.0 | 0.00 | 0.02 | 0.02 | 68 | 1009.1 |
| 20260507230737 | 54 | 339 | 0.0 | 3.0 | 0.00 | 0.02 | 0.02 | 70 | 1009.2 |
| 20260507225839 | 54 | 319 | 0.0 | 1.0 | 0.00 | 0.02 | 0.02 | 71 | 1009.6 |
| 20260507224936 | 54 | 0 | 0.0 | 0.0 | 0.00 | 0.02 | 0.02 | 70 | 1009.7 |
| 20260507224036 | 54 | 322 | 0.0 | 2.0 | 0.00 | 0.02 | 0.02 | 71 | 1009.8 |
| 20260507223136 | 54 | 336 | 0.0 | 1.0 | 0.00 | 0.02 | 0.02 | 71 | 1009.7 |
| 20260507222236 | 54 | 332 | 0.0 | 2.0 | 0.00 | 0.02 | 0.02 | 70 | 1009.8 |
| 20260507220436 | 54 | 291 | 1.0 | 4.0 | 0.00 | 0.02 | 0.02 | 69 | 1010.1 |
| 20260507215536 | 56 | 320 | 2.0 | 10.0 | 0.00 | 0.02 | 0.02 | 59 | 1010.2 |
| 20260507214637 | 59 | 290 | 2.0 | 6.0 | 0.00 | 0.02 | 0.02 | 49 | 1009.8 |
| 20260507212836 | 60 | 185 | 2.0 | 6.0 | 0.00 | 0.02 | 0.02 | 48 | 1009.1 |
| 20260507211936 | 62 | 160 | 2.0 | 5.0 | 0.00 | 0.02 | 0.02 | 46 | 1009.2 |
| 20260507211036 | 62 | 163 | 2.0 | 5.0 | 0.00 | 0.02 | 0.02 | 49 | 1009.3 |
| 20260507210136 | 61 | 176 | 2.0 | 7.0 | 0.00 | 0.02 | 0.02 | 46 | 1009.4 |
| 20260507205236 | 62 | 182 | 2.0 | 5.0 | 0.00 | 0.02 | 0.02 | 46 | 1009.5 |
| 20260507204336 | 61 | 191 | 2.0 | 9.0 | 0.00 | 0.02 | 0.02 | 49 | 1009.6 |
| 20260507203436 | 60 | 184 | 3.0 | 8.0 | 0.00 | 0.02 | 0.02 | 48 | 1009.6 |
| 20260507202536 | 61 | 137 | 2.0 | 7.0 | 0.00 | 0.02 | 0.02 | 53 | 1009.9 |
| 20260507201636 | 60 | 159 | 3.0 | 9.0 | 0.00 | 0.02 | 0.02 | 51 | 1010.1 |
| 20260507200736 | 60 | 189 | 2.0 | 5.0 | 0.00 | 0.02 | 0.02 | 51 | 1010.2 |
| 20260507195836 | 60 | 170 | 3.0 | 6.0 | 0.00 | 0.02 | 0.02 | 52 | 1010.3 |
| 20260507194036 | 58 | 168 | 3.0 | 7.0 | 0.01 | 0.02 | 0.02 | 56 | 1011.0 |
| 20260507193136 | 58 | 179 | 3.0 | 6.0 | 0.01 | 0.02 | 0.02 | 54 | 1011.1 |
| 20260507192236 | 58 | 178 | 3.0 | 9.0 | 0.01 | 0.02 | 0.02 | 54 | 1011.4 |
| 20260507191336 | 58 | 195 | 2.0 | 7.0 | 0.01 | 0.02 | 0.02 | 54 | 1011.4 |
| 20260507185536 | 59 | 270 | 2.0 | 8.0 | 0.01 | 0.02 | 0.02 | 50 | 1011.7 |
| 20260507184636 | 59 | 187 | 2.0 | 8.0 | 0.00 | 0.01 | 0.01 | 48 | 1011.5 |
| 20260507183736 | 59 | 201 | 2.0 | 6.0 | 0.00 | 0.01 | 0.01 | 46 | 1011.6 |
| 20260507182836 | 58 | 200 | 2.0 | 8.0 | 0.00 | 0.01 | 0.01 | 43 | 1011.7 |
| 20260507181036 | 60 | 151 | 2.0 | 7.0 | 0.00 | 0.01 | 0.01 | 42 | 1011.7 |
| 20260507180136 | 59 | 184 | 2.0 | 6.0 | 0.00 | 0.01 | 0.01 | 41 | 1011.8 |
| 20260507175236 | 59 | 181 | 2.0 | 7.0 | 0.00 | 0.01 | 0.01 | 40 | 1011.9 |
| 20260507174336 | 59 | 155 | 2.0 | 7.0 | 0.00 | 0.01 | 0.01 | 39 | 1012.0 |
| 20260507173436 | 59 | 206 | 2.0 | 5.0 | 0.00 | 0.01 | 0.01 | 39 | 1012.2 |
| 20260507172536 | 59 | 206 | 2.0 | 4.0 | 0.00 | 0.01 | 0.01 | 40 | 1012.3 |
| 20260507171636 | 58 | 151 | 2.0 | 6.0 | 0.00 | 0.01 | 0.01 | 42 | 1012.5 |
| 20260507170736 | 58 | 164 | 1.0 | 4.0 | 0.00 | 0.01 | 0.01 | 44 | 1012.8 |
| 20260507164936 | 57 | 161 | 1.0 | 5.0 | 0.00 | 0.01 | 0.01 | 43 | 1013.0 |